Flag for Turkey Weather past 2 weeks in Samsun, Turkey

Now
57 °F

Partly sunny.


Feels Like: 57 °F
Forecast: 33 / 46 °F
Wind: 2 mph from East

Location: Samsun / Carsamba

Current Time: Dec 21, 2014 at 3:00:17 PM

Latest Report: Dec 21, 2014 at 1:50 PM


Visibility: N/A

Pressure: 29.98 "Hg

Humidity: 55%

Dew point: 41 °F

Location of SamsunLocation

Historic Weather in Samsun — Graph

°F

Samsun temperature yesterday

Maximum temperature yesterday: 61 °F (at 12:50 PM)
Minimum temperature yesterday: 43 °F (at 11:50 PM)
Average temperature yesterday: 50 °F

Past Weeks' High & Low Weather Summary

 TemperatureHumidityPressure
High72 °F (Dec 7, 11:50 AM)100% (Dec 6, 9:50 PM)30.36 "Hg (Dec 6, 9:50 PM)
Low30 °F (Dec 17, 5:50 AM)33% (Dec 7, 11:50 AM)29.83 "Hg (Dec 9, 11:50 AM)
Average51 °F80%30.11 "Hg
* Reported Dec 6 1:50 PM — Dec 21 1:50 PM, Samsun, Weather by CustomWeather, © 2014

Note: Actual official high and low records may vary slightly from our data, if they occured in-between our weather recording intervals... More about our weather records

Advertising

Samsun weather history for previous 24 hours

 ConditionsComfort  
Time TempWeatherWind HumidityBarometerVisibility
1:50 PM
Dec 21
57 °FPartly sunny.2 mph55%29.98 "HgN/A
12:50 PM57 °FPartly sunny.7 mph48%30.01 "HgN/A
11:50 AM57 °FPartly sunny.7 mph44%30.01 "HgN/A
10:50 AM57 °FPartly sunny.9 mph48%30.04 "HgN/A
9:50 AM55 °FPartly sunny.12 mph47%30.07 "HgN/A
8:50 AM55 °FPartly sunny.7 mph51%30.07 "HgN/A
7:50 AM50 °FPartly sunny.7 mph58%30.09 "HgN/A
6:50 AM46 °FPassing clouds.6 mph66%30.09 "HgN/A
5:50 AM46 °FPassing clouds.7 mph66%30.09 "HgN/A
4:50 AM48 °FPassing clouds.8 mph62%30.07 "HgN/A
3:50 AM43 °FClear.7 mph71%30.09 "Hg10 mi
2:50 AM41 °FClear.6 mph81%30.09 "Hg10 mi
1:50 AM43 °FPassing clouds.8 mph71%30.09 "HgN/A
12:50 AM41 °FPassing clouds.3 mph81%30.09 "HgN/A
11:50 PM
Dec 20
43 °FClear.5 mph76%30.12 "Hg10 mi
10:50 PM45 °FClear.6 mph71%30.12 "Hg10 mi
9:50 PM50 °FClear.7 mph58%30.12 "Hg10 mi
8:50 PM50 °FPassing clouds.6 mph58%30.12 "HgN/A
7:50 PM52 °FClear.9 mph58%30.12 "Hg10 mi
6:50 PM48 °FClear.3 mph82%30.12 "Hg10 mi
5:50 PM48 °FClear.2 mph82%30.12 "Hg10 mi
4:50 PM52 °FClear.6 mph72%30.12 "Hg10 mi
3:50 PM55 °FPassing clouds.3 mph67%30.12 "HgN/A
Weather by CustomWeather, © 2014

See weather overviewHow to use our weather pages